Weather Roundup
Issued by NWS Chicago, IL

Home | Current Version | Previous Version | Text Only | Print | Product List | Glossary Off
Versions: 1 2 3 4 5 6 7 8 9 10 11 12 13 14 15 16 17 18 19 20 21 22 23 24 25 26 27 28 29 30 31 32 33 34 35 36 37 38 39 40 41 42 43 44 45 46 47 48 49 50

000
NZUS59 KLOT 230106
HRRLOT

CHICAGO AREA WEATHER ROUNDUP
NATIONAL WEATHER SERVICE CHICAGO/ROMEOVILLE IL
800 PM CDT MON SEP 22 2014

NOTE: "FAIR" INDICATES FEW OR NO CLOUDS BELOW 12,000 FEET WITH NO
SIGNIFICANT WEATHER AND/OR OBSTRUCTIONS TO VISIBILITY.

* THESE STATIONS ARE NOT UNDER NWS QUALITY CONTROL. THEY ALSO MAY NOT
  REPORT WEATHER SUCH AS PRECIPITATION OR FOG.

ILZ005-006-012>014-019>023-230200-
NORTHEAST ILLINOIS

CITY           SKY/WX    TMP DP  RH WIND       PRES   REMARKS
OHARE          CLEAR     59  44  57 SE9       30.24R
MIDWAY         CLEAR     61  46  57 VRB5      30.25R
AURORA         CLEAR     53  47  79 CALM      30.24S
LANSING*       CLEAR     56  45  66 SE3       30.26R
JOLIET*        CLEAR     52  48  88 CALM      30.26R
WAUKEGAN       CLEAR     53  49  86 CALM      30.22R
DUPAGE AIRPORT CLEAR     54  48  80 CALM      30.23R
WHEELING       CLEAR     58  46  64 S3        30.25R
KANKAKEE*      CLEAR     53  48  84 CALM      30.26R
MORRIS*        CLEAR     56  48  76 CALM      30.24S
LEWIS AIRPORT* CLEAR     57  44  62 S3        30.25R
NORTHERLY IS     N/A     58  48  69 SE8         N/A
$$

WIZ051-052-058>065-066-070>072-230200-
SOUTHEAST WISCONSIN

CITY           SKY/WX    TMP DP  RH WIND       PRES   REMARKS
MILWAUKEE      CLEAR     63  46  54 W7        30.21R
KENOSHA*       CLEAR     54  47  77 CALM      30.23R
RACINE*        CLEAR     54  49  83 S3        30.24R
BURLINGTON     CLEAR     49  47  91 SW3       30.22S
WAUKESHA       CLEAR     55  46  71 SW5       30.22R
WEST BEND      CLEAR     54  46  76 CALM      30.21R
$$

INZ001>003-010>013-019-020-230200-
NORTHWEST INDIANA

CITY           SKY/WX    TMP DP  RH WIND       PRES   REMARKS
GARY*          CLEAR     50  48  93 VRB5      30.26R
MICHIGAN CITY* NOT AVBL
RENSSELAER*    NOT AVBL
VALPARAISO     CLEAR     51  44  77 CALM      30.27R
$$

LMZ740>746-230200-
SOUTHERN LAKE MICHIGAN

STATION/POSITION TIME  SKY/WX   TEMP WIND        PRES    VSBY
                                AIR  DIR/SP/G
                 (UTC)          (F)  (DEG/KT/KT) (MB)    (MI)
HARRISON CRIB    NOT AVBL
BURNHAM HARBOR   0100            58  140/  4/  7   N/A
CALUMET HARBOR   0100            59  140/  3/  4 1023.0R
BURNS HARBOR     NOT AVBL
MICHIGAN CITY    NOT AVBL
$$

ABBREVIATIONS USED IN REMARKS
   TC - TEMPERATURE IN CELSIUS
  WCI - WIND CHILL INDEX
   HX - HEAT INDEX
  VSB - VISIBILITY
$$


USA.gov is the U.S. government's official web portal to all federal, state and local government web resources and services.